Regional Weather Roundup
Issued by NWS State College, PA

Home | Current Version | Previous Version | Graphics & Text | Print | Product List | Glossary Off
Versions: 1 2 3 4 5 6 7 8 9 10 11 12 13 14 15 16 17 18 19 20 21 22 23 24 25 26 27 28 29 30 31 32 33 34 35 36 37 38 39 40 41 42 43 44 45 46 47 48 49 50

776
ASUS41 KCTP 230510
RWRCTP

REGIONAL WEATHER ROUNDUP
NATIONAL WEATHER SERVICE STATE COLLEGE PA
100 AM EDT SAT JUL 23 2016

Note: "fair" indicates few or no clouds below 12,000 feet with no
significant weather and/or obstructions to visibility.

* = STATION THAT DOES NOT REPORT PRECIPITATION /E.G. RAIN...SNOW...ETC/
    THUNDER OR FOG.

PAZ002>004-007>009-013>016-020>023-029>032-230600-
WESTERN PENNSYLVANIA

CITY           SKY/WX    TMP DP  RH WIND       PRES   REMARKS
ERIE           PTCLDY    79  68  69 SW6       29.94S
MEADVILLE      CLEAR     72  68  87 SW3       29.99F
FRANKLIN*      CLEAR     70  66  88 SW6       30.02S
NEW CASTLE     FAIR      75  70  84 SW5       30.00S
BEAVER COUNTY  NOT AVBL
BUTLER*        CLEAR     72  68  88 SW3       30.03S
PITTSBURGH INT MOCLDY    76  66  71 W7        30.01S
PITTSBURGH     CLEAR     77  64  64 SW9       30.01S
INDIANA*       CLOUDY    73  72  94 W5        30.04S
LATROBE        CLEAR     73  73 100 SW8       30.02S
WASHINGTON CO* CLEAR     68  64  88 CALM      30.04S
$$

PAZ004>006-010>012-017>019-024>028-033>037-041-042-045-046-049>053-230600-
CENTRAL PENNSYLVANIA

CITY           SKY/WX    TMP DP  RH WIND       PRES   REMARKS
BRADFORD       CLEAR     64  61  90 CALM      30.01F
DUBOIS         CLEAR     72  68  87 W5        30.01S
CLEARFIELD     CLEAR     75  69  81 S6        29.99S
JOHNSTOWN      CLEAR     74  65  73 W10       30.06S
ALTOONA        CLEAR     75  67  76 S6        30.01R
STATE COLLEGE  PTCLDY    78  70  76 W7        29.97S
WILLIAMSPORT   CLEAR     77  66  68 W7        29.88S
SELINSGROVE    CLEAR     71  70  96 CALM      29.91R
FT INDIANTOWN  CLEAR     77  68  74 S5        29.91R
CAPITAL CITY   CLEAR     81  67  62 W8        29.90S
HARRISBURG     CLEAR     79  70  74 CALM      29.89S
YORK           CLEAR     77  67  71 W3        29.92S
$$

PAZ038>040-043-044-047-048-054-055-060>062-067>071-230600-
EASTERN PENNSYLVANIA

CITY           SKY/WX    TMP DP  RH WIND       PRES   REMARKS
SCRANTON       CLEAR     77  66  68 S7        29.89S
MOUNT POCONO   CLEAR     69  64  84 W6        29.95R
ALLENTOWN      CLEAR     78  67  68 W3        29.87R
QUAKERTOWN*    CLEAR     77  68  73 CALM      29.89R
READING        CLEAR     80  66  62 W9        29.88R
LANCASTER      CLEAR     73  67  81 NW8       29.90S
COATESVILLE    CLEAR     75  68  78 NW8       29.92S
POTTSTOWN      CLEAR     79  67  66 VRB3      29.89S
BLUE BELL      CLEAR     79  68  69 SW3       29.86F
DOYLESTOWN     CLEAR     77  68  73 SW3       29.87R
WILLOW GROVE   NOT AVBL
NORTH PHILA    CLEAR     83  70  64 SW10      29.87S
PHILADELPHIA   CLEAR     81  72  74 SW8       29.87S
$$




USA.gov is the U.S. government's official web portal to all federal, state and local government web resources and services.